Location: Iowa City
(41.6610°N, 91.5300°W)
Time: 09:54:03
(UTC-06:00)

ISS - Visible Passes

Search period start: 25 February 2018 00:00
Search period end: 07 March 2018 00:00
Orbit: 403 x 406 km, 51.6° (Epoch: 26 February)

Date Brightness Start Highest point End Pass type
(mag) Time Alt. Az. Time Alt. Az. Time Alt. Az.
26 Feb -1.3 05:32:26 10° S 05:34:56 20° SE 05:37:27 10° E visible
27 Feb -0.7 04:42:05 10° SE 04:42:56 11° SE 04:43:46 10° ESE visible
27 Feb -3.8 06:15:40 10° SW 06:18:56 86° NNW 06:22:13 10° NE visible
28 Feb -3.0 05:24:34 18° SSW 05:26:44 49° SE 05:29:54 10° ENE visible
01 Mar -1.8 04:34:51 25° SE 04:34:51 25° SE 04:37:21 10° ENE visible
01 Mar -3.2 06:07:49 10° W 06:10:56 40° NNW 06:14:04 10° NE visible
02 Mar -3.9 05:17:39 42° WSW 05:18:36 69° NNW 05:21:53 10° NE visible
03 Mar -2.0 04:27:39 31° ENE 04:27:39 31° ENE 04:29:34 10° ENE visible
03 Mar -2.3 06:00:19 10° WNW 06:03:01 24° NNW 06:05:46 10° NE visible
04 Mar -2.9 05:10:12 33° NW 05:10:34 34° NNW 05:13:36 10° NE visible
05 Mar -1.5 04:20:00 23° NE 04:20:00 23° NE 04:21:25 10° NE visible
05 Mar -1.8 05:52:54 10° WNW 05:55:10 17° NNW 05:57:27 10° NNE visible
06 Mar -2.1 05:02:23 21° NNW 05:02:37 22° NNW 05:05:14 10° NE visible
